AirNav   ProFlight Series 2 Aviation Headset
 
 982 users online  

M24 Dean Griffin Memorial Airport
Wiggins, Mississippi, USA

GOING TO WIGGINS?


FAA INFORMATION EFFECTIVE 16 JULY 2020

Location

FAA Identifier: M24
Lat/Long: 30-50-34.8000N 089-09-41.4000W
30-50.580000N 089-09.690000W
30.8430000,-89.1615000
(estimated)
Elevation: 273 ft. / 83.2 m (surveyed)
Variation: 02E (1985)
From city: 1 mile W of WIGGINS, MS
Time zone: UTC -5 (UTC -6 during Standard Time)
Zip code: 39577

Airport Operations

Airport use: Open to the public
Control tower: no
ARTCC: HOUSTON CENTER
FSS: GREENWOOD FLIGHT SERVICE STATION
NOTAMs facility: GWO (NOTAM-D service available)
Attendance: 0800-1700
Wind indicator: lighted
Segmented circle: no
Lights: ACTVT MIRL RWY 17/35 - CTAF. PAPI RWY 17 & 35 OPRS CONSLY.
Beacon: white-green (lighted land airport)
Operates sunset to sunrise.

Airport Communications

CTAF/UNICOM: 122.8

Nearby radio navigation aids

VOR radial/distance  VOR name  Freq  Var
GPTr349/26.5GULFPORT VORTAC109.0002E
PCUr055/33.9PICAYUNE VOR/DME114.1505E
LBYr160/35.7EATON VORTAC110.6005E
GCVr241/38.0GREENE COUNTY VORTAC115.7005E

 
NDB name  Hdg/Dist  Freq  Var  ID
BOGALUSA094/36.235300WGVB --. ...- -...

Airport Services

Fuel available: 100LL
FUEL AVBL 24/7 WITH CREDIT CARD.
Parking: tiedowns
Airframe service: NONE
Bottled oxygen: NONE
Bulk oxygen: NONE

Runway Information

Runway 17/35

Dimensions: 3500 x 75 ft. / 1067 x 23 m
Surface: asphalt, in fair condition
Weight bearing capacity: 
Single wheel: 20.0
Runway edge lights: medium intensity
RUNWAY 17  RUNWAY 35
Latitude: 30-50.866725N30-50.293587N
Longitude: 089-09.729418W089-09.649293W
Elevation: 273.0 ft.245.3 ft.
Traffic pattern: leftleft
Runway heading: 171 magnetic, 173 true351 magnetic, 353 true
Displaced threshold: 500 ft.no
Markings: basic, in fair conditionbasic, in fair condition
Visual slope indicator: 2-light PAPI on left (3.00 degrees glide path)2-light PAPI on left (3.00 degrees glide path)
Touchdown point: yes, no lightsyes, no lights
Obstructions: 41 ft. tree, 1200 ft. from runway, 150 ft. left of centerline, 24:1 slope to clear
APPROACH SLOPE 36:1 TO THE DSPLCD THLD.
62 ft. trees, 1440 ft. from runway, 20:1 slope to clear

Airport Ownership and Management from official FAA records

Ownership: Publicly-owned
Owner: CITY OF WIGGINS-STONE CO
117 FIRST STREET
WIGGINS, MS 39577
Phone 601-928-7221
Manager: DURON HATTEN
P.O. BOX 219
WIGGINS, MS 39577
Phone 601-928-7221

Airport Operational Statistics

Aircraft based on the field: 9
Single engine airplanes: 8
Multi engine airplanes: 1
    
Aircraft operations: avg 35/day *
51% local general aviation
45% transient general aviation
4% military
* for 12-month period ending 22 May 2019

Additional Remarks

FOR CD CTC GULFPORT APCH AT 228-265-6151, WHEN APCH CLSD CTC HOUSTON ARTCC AT 281-230-5622.

Instrument Procedures

There are no published instrument procedures at M24.

Some nearby airports with instrument procedures:

M13 - Poplarville-Pearl River County Airport (18 nm W)
KHBG - Hattiesburg Bobby L Chain Municipal Airport (26 nm N)
KGPT - Gulfport-Biloxi International Airport (27 nm S)
KBIX - Keesler Air Force Base (29 nm SE)
KHSA - Stennis International Airport (32 nm SW)
 
Loc | Ops | Rwys | IFR | FBO | Links
Com | Nav | Svcs | Stats | Notes

Continental Services
AirBoss

 
Area around M24 (Dean Griffin Memorial Airport)
 
Road maps at: MapQuest Bing Google
 
Aerial photo
No photo
 
Sectional chart

 
Airport distance calculator
Flying to Dean Griffin Memorial Airport? Find the distance to fly.

From to M24

Sunrise and sunset
Times for 08-Aug-2020
 Local
(UTC-5)
 Zulu
(UTC)
Morning civil twilight05:5410:54
Sunrise06:2011:20
Sunset19:4400:44
Evening civil twilight20:1001:10

Current date and time
Zulu (UTC)  09-Aug-2020 01:31:35
Local (UTC-5)  08-Aug-2020 20:31:35
 
METAR
KHBG 
26nm N 
090053Z AUTO 17005KT 10SM CLR 29/23 A3009 RMK AO2 SLP187 T02940228
KGPT 
26nm S 
090053Z 20003KT 10SM CLR 30/23 A3008 RMK AO2 SLP186 T03000233
KBIX 
29nm SE 
090056Z AUTO 23006KT 10SM CLR 30/24 A3009 RMK AO2 SLP192 T02950239
KHSA 
32nm SW 
090050Z 00000KT 7SM CLR 28/24 A3009
KMJD 
33nm SW 
090115Z AUTO 00000KT 10SM CLR 28/23 RMK AO2
KBXA 
36nm W 
090115Z AUTO 23005KT 10SM CLR 30/24 A3010 RMK AO2 T02970237
KPIB 
38nm N 
090056Z AUTO 00000KT 10SM CLR 28/24 A3010 RMK AO2 SLP190 T02780239
KLUL 
38nm N 
090115Z AUTO 13004KT 10SM CLR 29/24 A3009 RMK A02 T02910239
KPQL 
40nm SE 
090053Z AUTO 00000KT 10SM CLR 29/24 A3010 RMK AO2 SLP193 T02890244
K0R0 
43nm NW 
090115Z AUTO 00000KT 10SM CLR 26/24 A3011 RMK AO2
TAF
KHBG 
26nm N 
081731Z 0818/0918 VRB04KT P6SM SCT040 FM082300 VRB04KT P6SM FEW250
KGPT 
26nm S 
081720Z 0818/0918 20005KT P6SM BKN030 BKN060 FM090000 21005KT P6SM FEW045 FEW250 FM091000 VRB03KT P6SM VCSH FEW030 FEW250
KBIX 
29nm SE 
080200Z 0802/0908 22009KT 9999 SKC QNH3003INS TEMPO 0810/0813 33010G15KT 8000 -SHRA VCTS BKN018CB TX32/0821Z TN25/0812Z LAST NO AMDS AFT 0804 NEXT 1002
NOTAMs
Click for the latest NOTAMs
NOTAMs are issued by the DoD/FAA and will open in a separate window not controlled by AirNav.

 

 
 

FBO, Fuel Providers, and Aircraft Ground Support

  
 Business Name 
 
 Contact 
 
 Services / Description 
 
Fuel Prices
 
Comments
  
Dean Griffin Memorial Airport 601-928-6495
no information available

If you are affiliated with Dean Griffin Memorial Airport and would like to show here your services, contact info, web link, logo, and more, click here
100LL
SS $4.50 
 Updated 29-Jul-2020
 
   write
SS=Self service
Update Fuel Prices
 

Would you like to see your business listed on this page?

 If your business provides an interesting product or service to pilots, flight crews, aircraft, or users of the Dean Griffin Memorial Airport, you should consider listing it here.  To start the listing process, click on the button below
 
Add a business
 

Other Pages about Dean Griffin Memorial Airport

Update a link
 
Copyright © AirNav, LLC. All rights reserved. Privacy Policy  Contact